ECMWFFLT1_850_spd_132.txt.gz
Wind_Speed
16 19 22 24 23 24 24 23 22 21 21 21 22 21 19 19 20 21 21 22 21 19 17 18 19 20 21 20 19 18 18 18 18 18 18 18 17 16 15 14 14 13 12 11 10 10 10 10 11 11 11 11 11 11 10 10 9 9 9 10 10 10 10
12 15 19 22 23 24 24 23 22 21 22 23 23 21 20 20 21 22 22 22 22 21 19 18 19 20 20 20 20 19 19 19 19 19 18 18 19 18 16 14 14 14 14 12 11 11 11 11 11 12 12 11 11 12 12 11 11 11 10 11 11 11 11
10 12 14 18 20 22 23 22 22 22 22 23 22 21 21 22 23 23 23 23 22 22 21 20 19 19 19 20 20 19 19 19 19 19 18 18 18 17 16 15 15 14 14 13 13 11 10 11 11 12 11 11 11 11 12 12 12 12 12 12 12 11 12
8 9 12 14 15 17 20 21 21 21 22 22 22 22 22 23 23 23 23 23 22 23 23 22 21 20 20 20 20 19 19 19 20 19 19 17 17 16 16 16 16 15 14 14 14 13 12 11 11 12 12 12 12 12 13 13 12 12 13 13 13 12 13
4 8 11 13 12 13 14 16 17 19 20 20 21 22 23 23 23 23 24 23 22 23 23 22 21 20 21 20 20 20 19 19 20 20 19 18 17 17 17 17 16 16 15 15 14 15 15 14 12 12 12 12 13 13 13 13 12 13 14 13 13 13 12
4 4 9 11 12 12 12 13 15 16 17 17 18 20 21 21 22 22 23 23 22 23 23 23 21 21 22 21 20 20 19 19 20 20 20 19 18 17 17 17 16 16 15 15 15 15 16 15 14 13 12 12 12 12 13 13 12 12 13 14 14 13 12
9 3 4 8 11 13 13 14 14 14 16 17 17 17 17 18 20 21 22 23 24 24 24 25 23 22 22 21 20 20 19 19 19 20 20 19 19 18 17 17 17 16 15 15 15 15 15 15 15 15 15 13 12 12 13 13 14 13 13 14 15 15 14
8 7 4 4 9 13 14 15 16 15 16 19 20 18 17 18 20 21 24 26 26 26 26 26 24 23 23 22 21 20 19 18 18 19 19 19 20 20 19 18 17 17 16 16 16 16 16 15 15 16 16 15 14 14 14 15 16 15 14 14 15 15 15
7 6 5 3 7 11 12 14 16 17 18 20 22 21 18 18 20 22 24 27 28 27 27 27 25 24 25 24 22 20 19 18 18 18 19 20 20 20 20 19 18 18 18 17 16 16 17 16 16 16 17 17 16 17 16 16 17 16 15 15 16 16 15
7 6 4 2 3 6 9 12 15 17 18 19 21 22 19 18 20 21 21 24 27 27 27 27 25 25 26 27 24 21 19 18 18 18 19 19 20 21 21 20 19 19 18 18 17 16 16 17 16 17 18 19 18 19 19 18 18 17 16 16 17 17 17
6 6 5 3 2 4 5 7 11 15 17 16 16 19 20 19 20 21 21 22 25 26 26 27 27 26 27 27 25 23 21 19 17 18 19 19 20 20 21 20 20 19 19 19 18 18 17 17 17 18 19 20 19 19 20 19 19 18 17 17 16 16 16
6 5 6 5 3 2 2 2 4 8 13 14 14 14 17 19 18 17 18 20 22 23 24 25 27 27 27 27 26 25 23 21 19 19 19 19 20 20 21 21 20 20 20 19 19 19 18 17 17 18 20 21 19 18 19 19 19 19 19 18 17 16 16
7 6 7 7 5 2 0 1 1 3 8 11 13 13 16 19 18 14 14 17 18 20 21 22 24 25 26 26 25 24 23 22 22 22 20 19 19 19 20 20 21 21 21 20 20 20 20 19 18 18 19 20 20 18 18 19 19 19 19 18 17 17 16
9 9 9 9 9 7 5 5 3 1 4 7 10 11 13 16 16 13 13 14 15 17 18 19 19 20 21 22 23 23 23 23 24 24 22 22 21 20 19 19 20 20 20 20 20 20 20 19 19 18 18 18 19 18 18 18 18 18 18 18 17 17 17
14 14 14 14 14 12 11 10 8 4 2 5 8 8 9 13 14 13 11 11 13 15 16 18 19 17 17 19 20 22 23 25 26 26 26 25 25 24 23 22 21 19 19 20 20 20 20 20 19 18 18 18 18 18 18 18 17 17 17 17 16 16 16
17 17 17 17 16 15 13 12 11 9 6 3 3 5 6 11 15 17 17 17 19 19 17 17 18 17 17 17 18 20 22 25 26 27 27 26 25 25 26 26 23 20 18 19 19 19 19 19 19 19 18 18 18 18 18 18 17 18 20 19 17 16 15
18 18 19 18 16 16 16 15 14 12 11 10 6 1 3 6 11 16 19 20 23 23 20 18 17 17 18 18 18 18 21 24 25 25 25 25 25 25 25 26 24 21 20 19 19 20 20 20 20 20 19 18 17 18 18 18 18 21 22 21 18 17 17
18 18 19 19 16 16 17 18 17 15 13 12 10 8 3 1 5 10 13 15 16 17 17 17 17 18 19 20 19 19 21 23 24 24 25 26 26 26 26 25 24 22 21 20 20 21 20 20 20 20 20 19 18 18 18 18 19 23 23 21 19 19 18
18 18 18 18 18 17 16 18 18 17 15 13 12 12 9 5 2 4 7 9 11 12 13 13 15 17 19 20 20 20 21 22 22 24 26 26 26 27 28 28 26 24 23 22 22 22 20 19 20 20 19 19 19 19 18 18 21 23 22 21 20 20 19
16 16 16 17 18 17 14 15 18 18 17 15 14 14 13 10 6 3 2 3 5 7 8 9 10 12 14 17 18 19 21 22 22 23 24 25 26 28 28 29 29 27 25 23 22 22 20 20 20 20 20 21 20 19 17 19 22 22 21 22 22 22 22
15 15 15 16 18 17 15 15 16 18 20 18 17 16 15 14 12 8 5 3 1 1 2 3 4 7 9 12 15 17 19 21 22 23 24 25 26 27 28 29 28 27 27 25 23 24 24 23 23 22 22 23 23 21 18 18 19 20 22 24 23 24 25
14 13 14 15 15 16 16 15 14 17 21 22 20 19 17 17 16 14 11 9 7 5 3 1 2 3 5 6 9 13 15 16 18 19 21 22 23 24 26 28 28 28 28 26 24 24 25 24 24 23 23 23 23 23 22 20 18 18 22 25 24 25 26
11 12 13 13 13 15 15 15 14 14 18 21 22 20 18 17 18 18 18 17 15 13 11 9 9 8 7 6 3 3 7 10 12 15 18 20 22 22 24 27 28 28 28 25 24 24 24 24 23 22 22 22 22 22 23 22 22 22 23 26 26 25 26
10 11 12 11 12 13 14 15 15 14 17 21 22 21 19 19 20 21 22 21 20 19 18 17 16 14 12 12 11 9 5 2 4 6 9 14 17 19 25 29 29 28 25 22 21 22 23 23 21 17 18 19 19 21 22 21 22 23 23 25 26 25 26
9 10 11 11 11 12 13 15 16 15 17 19 20 20 20 20 20 21 22 21 21 23 24 22 20 18 15 14 13 12 11 8 6 5 2 3 5 7 13 17 19 20 20 18 18 16 16 18 17 14 14 15 15 16 17 17 19 20 21 22 23 23 24
9 9 10 10 10 11 12 14 15 15 17 18 17 17 18 20 22 23 24 25 25 26 26 24 22 20 18 16 15 13 12 11 9 8 6 4 4 2 3 4 6 9 10 11 12 11 11 13 12 10 10 10 10 11 13 14 16 17 17 19 20 20 21
9 9 9 9 10 10 11 13 14 14 16 17 16 15 16 18 21 23 25 26 26 26 24 22 21 20 19 18 17 15 14 14 12 10 8 7 6 5 2 1 3 6 7 5 4 5 6 9 10 9 9 10 10 12 13 15 16 16 16 17 19 20 20
9 9 9 10 11 11 11 13 14 14 15 16 15 14 14 16 20 21 22 24 24 23 22 20 20 19 19 19 18 17 16 15 14 13 12 10 7 6 7 6 6 7 8 7 5 4 4 6 8 10 11 12 13 14 17 18 18 18 18 19 21 21 21
9 10 10 10 10 11 11 13 14 15 15 16 16 15 14 15 17 18 20 21 21 20 19 19 19 19 19 19 19 18 17 15 14 14 13 13 12 10 10 10 9 8 8 7 7 5 3 3 5 8 10 11 13 15 17 18 17 17 17 18 19 19 19
10 10 11 12 12 12 12 13 14 15 16 16 15 15 15 15 16 16 17 19 18 16 17 17 17 18 18 19 19 19 18 16 15 14 13 13 13 12 12 12 11 9 8 6 5 4 5 7 9 10 9 9 10 12 13 14 13 13 13 13 13 13 13
10 10 11 13 15 15 15 15 15 15 17 17 16 14 14 15 15 15 17 17 15 14 14 14 14 15 16 17 18 18 17 17 16 15 14 13 13 13 13 12 11 11 10 7 5 4 5 6 7 7 7 8 9 9 9 9 8 7 6 6 6 7 6
10 10 10 12 14 14 13 14 14 15 16 16 16 15 15 14 14 14 15 15 13 12 12 13 13 13 14 15 16 16 17 17 17 16 14 13 13 12 13 13 12 12 11 10 9 8 7 6 5 3 2 3 4 4 4 4 3 3 2 2 2 2 3
10 10 10 10 12 11 11 11 13 13 14 15 15 15 15 14 14 13 13 13 11 10 11 13 12 13 13 13 14 14 15 16 16 16 16 15 14 12 10 10 11 11 11 11 11 12 11 9 8 8 8 7 6 5 4 3 3 2 0 1 2 3 4
11 10 9 9 10 10 10 10 10 10 11 12 13 13 13 14 13 12 11 11 10 10 11 12 12 12 12 12 12 13 14 14 15 16 16 16 15 14 13 13 11 10 10 10 11 12 11 10 9 9 10 9 8 7 5 3 2 3 4 4 5 5 6
10 9 9 8 8 8 8 9 9 9 9 10 11 11 12 12 12 11 11 10 10 10 10 11 12 11 11 11 11 11 12 12 13 14 14 14 14 14 14 14 13 13 12 12 11 10 9 8 7 6 6 6 4 3 2 2 4 6 6 7 7 7 7
9 8 8 7 7 6 6 7 8 8 8 10 10 10 10 10 10 10 10 9 9 9 10 11 11 10 9 9 9 9 9 9 9 10 11 11 11 13 13 13 13 13 13 12 12 10 8 7 5 3 2 1 1 2 2 3 5 6 7 8 8 8 8
7 7 7 6 5 5 4 5 6 7 7 8 9 9 9 9 8 8 8 8 9 9 9 9 9 8 8 8 8 9 9 7 7 9 9 8 9 10 11 11 11 11 11 12 12 11 10 8 7 6 5 4 4 3 3 3 3 4 5 6 7 7 7
7 7 7 6 5 4 3 4 5 5 6 6 7 8 8 8 8 9 8 8 8 8 7 8 8 8 8 8 8 9 9 8 8 8 7 7 7 7 7 7 8 8 9 10 10 11 10 9 9 8 8 8 7 7 6 5 5 4 4 4 5 5 4

ECMWFFLT1_850_spd_135.txt.gz
Wind_Speed
15 18 19 22 23 21 20 22 22 22 21 20 20 20 19 18 18 17 18 18 17 15 16 16 17 19 20 20 20 19 18 17 16 16 16 15 15 14 14 13 13 13 12 11 11 11 11 11 11 10 10 11 11 10 10 10 10 9 9 9 9 10 10
12 16 18 18 18 20 20 21 22 21 21 20 19 20 20 19 18 17 17 19 18 16 15 16 17 19 20 20 20 20 19 19 18 17 17 16 16 15 14 14 14 14 14 12 11 11 11 12 12 11 11 11 11 11 11 11 11 10 10 10 10 10 11
9 13 16 14 13 17 19 19 22 21 20 20 20 20 20 19 18 18 18 18 19 18 17 17 17 19 21 21 20 20 20 20 19 18 18 17 17 16 15 15 14 14 14 14 12 12 12 12 12 12 12 12 11 11 11 11 11 11 11 11 10 10 11
4 8 11 13 14 17 20 19 19 21 20 19 20 19 20 19 18 18 18 18 20 19 17 17 19 19 19 20 20 20 20 20 19 19 18 17 16 17 16 16 15 15 15 15 14 13 12 12 12 13 14 13 13 13 12 12 12 11 12 11 11 11 12
3 4 5 9 11 14 19 19 16 18 20 18 18 18 18 19 18 18 19 19 19 19 18 18 19 18 18 19 20 19 20 20 20 19 18 17 17 17 17 17 16 16 15 15 15 15 15 14 13 13 14 14 14 14 14 13 13 12 13 12 11 11 12
5 5 5 5 8 10 14 13 11 15 16 16 17 17 17 18 18 19 19 19 19 18 19 20 19 19 18 19 19 19 19 20 20 20 19 18 17 17 17 17 17 17 17 16 16 16 16 16 15 14 14 14 13 13 14 14 13 13 14 14 13 12 12
5 3 4 3 6 10 12 10 9 9 10 12 13 14 14 14 15 17 18 18 18 18 19 19 20 20 18 18 19 19 18 19 20 20 20 19 18 18 18 17 17 17 17 17 17 17 17 17 17 16 16 15 14 14 14 15 15 14 14 15 15 14 13
3 3 4 3 4 8 12 11 12 10 6 7 8 9 11 11 12 14 15 15 15 16 18 18 18 19 18 18 18 18 17 18 19 20 19 19 19 19 19 18 18 17 17 17 17 17 17 17 17 17 17 17 16 15 15 16 17 16 15 15 15 14 14
4 4 4 4 3 5 8 11 12 12 10 7 7 9 9 9 11 13 12 13 14 14 17 19 19 18 18 18 18 17 17 17 18 18 19 20 20 20 20 19 18 18 17 17 17 17 17 18 17 17 18 18 18 18 17 16 17 17 16 16 16 15 14
5 5 5 5 4 3 3 5 8 11 13 11 11 12 9 8 11 13 11 12 13 14 15 17 18 18 18 19 19 18 17 17 18 18 18 19 20 20 20 20 19 18 18 18 17 17 17 17 18 18 18 19 19 19 19 18 18 17 16 16 17 17 16
6 6 6 6 5 5 4 2 2 7 10 13 14 16 14 11 12 13 12 11 11 13 15 15 15 16 18 19 20 20 19 18 18 18 18 19 20 20 20 20 20 19 19 18 18 18 17 17 18 18 19 20 20 20 20 20 19 18 17 17 16 17 16
7 7 8 7 6 6 6 5 2 1 6 10 12 15 17 16 15 15 14 13 13 15 16 15 15 16 16 17 19 20 21 20 19 19 19 19 19 20 20 20 20 20 19 19 19 18 18 18 18 18 19 20 20 20 20 20 20 19 19 18 17 17 16
12 12 11 10 10 9 8 7 6 4 1 6 9 11 13 16 18 17 15 13 14 15 16 16 16 16 16 16 17 18 20 21 21 20 19 19 19 19 19 19 19 19 19 18 18 18 18 19 18 19 20 20 21 21 21 20 20 20 20 19 18 18 17
16 15 14 13 12 12 11 10 8 6 3 2 6 9 10 12 15 18 17 14 12 11 12 14 15 16 16 18 18 18 19 20 20 21 20 19 18 18 18 18 18 20 20 19 19 18 17 18 19 19 21 21 20 22 22 21 20 20 21 20 19 19 18
15 14 14 13 12 11 11 10 9 7 4 2 1 5 9 11 13 16 18 18 14 9 8 10 12 13 15 17 18 19 20 20 21 22 21 20 19 19 19 18 17 19 22 22 22 22 20 19 19 19 21 19 18 19 21 21 21 20 20 20 20 19 19
14 13 12 12 11 11 10 9 9 8 5 3 2 2 6 9 11 13 16 18 16 12 8 7 9 11 12 14 16 18 19 21 22 21 18 20 23 24 24 22 19 21 23 23 23 24 23 22 20 20 20 20 19 19 20 21 21 21 22 22 20 18 17
15 14 13 11 10 10 10 10 9 8 7 6 4 1 4 6 8 10 13 16 18 18 15 12 11 11 12 14 15 17 18 19 21 21 19 21 26 27 26 25 23 24 24 23 23 23 23 22 22 21 20 20 20 20 20 22 22 21 23 23 22 20 17
14 14 14 13 11 10 10 10 10 9 9 8 7 5 1 3 4 5 9 13 15 18 20 21 19 16 14 15 16 17 19 20 21 23 23 22 23 24 23 23 23 23 23 22 23 24 23 21 21 22 22 22 21 20 19 21 23 24 23 23 23 22 20
12 13 15 13 12 11 11 11 10 11 10 9 8 6 3 1 2 3 5 8 11 13 15 18 18 16 14 15 16 17 18 19 21 23 24 23 21 22 23 22 21 22 21 20 22 23 24 23 22 23 24 24 24 22 19 19 21 23 24 23 22 23 22
10 13 15 14 12 12 13 12 11 11 10 8 7 7 5 3 2 2 2 3 7 9 11 12 13 13 12 13 14 15 16 18 20 22 25 25 23 22 23 22 21 21 21 20 21 22 23 24 24 24 25 26 27 25 23 20 18 19 20 21 21 21 21
7 11 13 12 11 12 13 13 12 11 9 8 8 8 8 7 5 3 2 2 2 4 5 6 7 8 9 10 12 14 15 17 20 23 25 24 22 22 22 20 20 22 22 21 22 23 25 25 24 23 24 25 25 24 24 24 21 18 18 18 18 18 20
4 8 12 11 8 9 12 14 13 13 11 8 8 9 10 10 9 7 6 4 3 2 2 1 1 1 3 5 8 11 14 15 16 19 20 19 19 21 21 18 18 22 22 22 23 25 26 26 24 24 24 25 25 23 22 24 24 21 19 18 17 17 20
3 5 9 9 8 9 11 12 13 14 13 10 9 9 11 12 12 11 10 9 8 7 7 7 7 7 7 6 3 2 7 11 12 15 16 15 15 17 17 16 16 18 20 22 24 26 27 26 25 24 24 25 25 24 22 22 23 22 20 20 19 19 19
3 5 7 8 9 10 11 11 12 13 13 13 11 10 9 10 11 12 12 13 13 13 13 14 14 13 12 11 10 8 4 2 4 8 10 12 13 14 14 15 15 15 17 20 23 25 27 26 25 25 25 25 23 23 23 23 23 22 21 21 21 20 20
5 6 8 9 9 11 11 11 11 11 12 14 14 12 10 10 11 13 14 16 17 17 17 17 17 15 13 12 11 11 9 7 4 1 2 4 6 7 9 9 8 8 11 16 22 27 29 26 24 23 23 23 20 19 21 22 22 21 20 19 20 20 20
7 7 8 9 9 10 10 10 10 11 11 12 13 13 12 13 15 17 17 17 18 19 19 18 17 16 14 12 11 10 9 7 6 5 3 2 1 1 2 2 2 2 3 6 11 17 23 24 20 19 20 21 19 18 18 18 18 18 17 16 16 17 18
9 8 8 10 10 9 10 10 10 10 11 11 11 11 11 14 17 18 18 17 18 18 18 17 16 15 14 12 11 10 10 9 8 7 6 4 4 4 4 2 2 3 4 6 6 3 5 12 14 15 18 20 20 18 17 16 15 15 14 13 14 14 15
11 10 10 11 11 10 10 10 10 10 11 11 11 10 10 12 14 15 15 15 16 15 15 16 16 15 14 13 12 11 10 10 9 8 7 5 4 3 3 2 1 3 4 6 6 5 2 4 8 9 10 12 12 12 13 13 13 13 13 13 13 14 15
12 11 11 11 10 10 10 10 10 10 10 10 10 10 10 11 13 13 13 13 13 12 13 14 15 15 15 14 13 12 11 10 9 9 9 8 7 6 4 2 1 2 3 4 4 3 2 4 6 6 7 7 7 8 10 11 12 13 14 14 14 15 17
12 11 11 11 11 11 11 10 11 11 10 10 10 11 11 11 13 13 13 13 12 11 12 13 13 14 15 14 14 14 13 12 11 10 10 10 11 10 9 7 5 3 2 2 2 2 3 4 5 6 6 7 7 8 9 10 10 10 11 11 12 12 13
12 11 11 12 12 12 12 11 11 11 11 11 10 10 11 12 13 14 13 12 11 11 12 12 13 13 14 13 14 14 14 14 13 12 11 11 11 11 12 11 9 7 6 4 3 1 1 2 3 4 5 4 4 5 4 4 5 6 6 8 8 9 9
11 11 11 12 12 12 11 11 11 11 11 11 10 10 10 10 11 13 13 11 9 10 11 12 12 13 13 13 13 13 13 13 13 12 12 11 10 10 10 11 11 10 9 8 7 7 6 4 3 2 1 1 1 2 3 3 2 3 3 5 6 6 6
11 10 10 10 10 10 10 10 10 10 10 11 10 10 10 9 9 11 11 9 8 8 9 10 11 11 11 11 11 12 12 13 13 13 13 12 11 10 9 10 9 9 9 9 9 10 9 8 7 7 7 6 5 5 6 4 3 2 2 2 3 3 4
11 10 10 9 9 9 9 9 10 9 9 10 10 10 10 10 9 8 8 8 8 8 9 10 10 10 10 10 10 11 11 11 12 13 13 12 11 11 11 10 10 9 10 10 9 10 10 9 8 8 8 7 6 5 5 5 5 5 4 4 4 5 6
10 9 9 8 8 9 9 9 9 9 9 9 10 10 10 10 10 10 9 8 8 8 10 10 10 10 9 9 9 9 9 9 9 10 10 11 11 11 11 11 10 10 10 9 8 8 8 7 6 5 5 5 5 5 5 7 7 7 7 7 7 8 8
9 9 8 8 7 8 8 9 8 9 9 9 9 10 10 11 10 10 10 9 9 9 9 10 10 9 9 8 8 8 8 8 7 7 7 7 8 9 11 11 11 10 9 9 8 7 6 5 4 4 4 5 5 6 7 8 8 8 8 8 8 8 8
9 8 8 7 7 7 7 7 6 7 8 8 8 8 9 10 10 10 9 8 9 9 9 9 10 9 8 8 8 9 9 7 6 7 6 5 5 6 7 10 11 10 9 8 8 7 7 6 5 5 5 5 6 6 7 7 8 8 8 8 8 8 8
8 8 7 7 7 6 6 6 5 5 6 7 7 7 7 7 7 8 8 7 7 7 6 7 8 7 6 6 7 8 8 6 6 6 5 5 5 4 4 7 10 10 9 8 8 8 7 6 6 5 5 6 6 6 7 7 8 8 8 8 8 8 7

ECMWFFLT1_850_spd_138.txt.gz
Wind_Speed
12 13 14 18 20 16 12 15 20 20 20 21 21 20 22 24 24 24 23 21 19 18 18 18 18 18 19 20 20 19 18 18 17 18 18 16 15 15 14 14 15 14 13 12 12 12 12 12 11 12 12 11 10 11 11 10 10 9 9 10 11 12 12
8 10 13 19 22 19 13 13 18 20 20 21 21 20 20 23 24 24 23 21 19 17 17 17 18 18 19 19 20 20 18 17 17 17 17 17 17 16 15 14 15 15 14 13 11 11 12 13 13 14 13 12 12 11 11 11 11 11 10 10 10 11 11
3 6 12 20 25 23 17 14 16 17 19 21 21 20 21 22 23 23 23 22 20 18 18 17 17 17 18 18 19 20 20 19 17 17 17 17 17 16 15 14 15 15 15 15 13 12 12 14 15 15 15 14 13 12 11 11 11 12 11 11 11 10 10
7 5 12 18 22 24 21 16 14 13 15 18 19 20 21 21 21 23 24 23 21 20 20 19 17 17 18 19 19 20 21 21 19 17 17 17 17 16 16 15 16 15 15 16 15 13 13 14 14 15 15 16 15 14 13 12 11 12 12 12 12 11 11
5 2 8 12 15 19 21 19 16 14 12 15 17 17 17 18 19 20 22 23 22 20 20 19 18 18 18 19 19 19 20 21 20 19 18 17 17 17 16 16 17 16 15 15 16 16 15 14 14 14 15 15 16 16 15 14 13 12 13 13 12 12 12
5 3 2 5 8 14 20 22 21 16 11 13 16 13 13 18 20 17 18 21 21 20 20 19 18 19 20 19 19 19 19 21 21 20 20 19 18 18 18 18 17 17 16 16 15 16 17 17 15 15 15 14 14 15 16 15 14 13 13 13 12 12 11
5 4 1 2 4 7 13 17 19 17 13 13 14 10 10 18 22 18 15 15 18 21 21 19 18 19 20 19 19 19 18 19 21 21 21 20 19 19 19 19 19 18 17 17 16 16 17 18 18 16 16 15 14 13 15 16 15 14 13 14 14 13 12
5 5 3 1 2 3 4 7 11 14 14 13 11 10 12 16 19 18 15 12 17 23 21 18 19 19 18 18 18 19 19 18 19 20 21 20 20 20 19 19 19 19 18 18 18 18 18 18 19 18 18 17 16 15 15 16 16 15 15 15 15 16 14
6 6 5 2 1 1 2 2 4 8 12 12 9 6 9 14 17 20 20 14 13 20 21 17 16 16 16 18 17 17 18 18 19 20 20 20 20 20 20 19 19 19 19 19 19 19 20 19 19 19 19 18 18 17 16 16 17 17 16 17 17 18 16
5 7 7 5 3 1 2 5 4 3 6 10 12 9 5 8 11 15 20 16 10 14 18 15 15 15 17 19 18 16 17 17 19 21 20 20 20 20 20 19 19 19 19 19 19 19 20 20 20 19 19 19 19 20 19 18 18 18 18 18 18 19 18
7 8 8 6 5 3 2 6 10 9 7 8 10 10 7 6 4 4 11 15 12 12 13 12 14 16 16 18 19 20 19 16 15 19 21 20 18 19 19 19 19 19 19 19 20 19 18 20 20 20 20 20 20 20 20 20 20 19 19 19 18 18 18
10 10 11 10 7 6 6 5 6 10 10 11 11 11 9 7 5 4 7 11 14 14 12 11 13 15 15 17 19 20 18 16 15 18 20 20 17 17 20 20 19 19 20 19 19 20 19 19 20 20 20 21 20 20 20 20 20 20 20 20 18 17 18
13 13 13 12 11 10 9 10 6 2 4 6 9 11 13 13 9 5 6 10 14 16 15 14 12 13 14 15 16 17 16 15 16 18 19 19 17 17 19 20 18 17 19 20 20 20 19 19 18 18 20 21 21 20 20 19 20 20 21 21 19 19 19
13 14 13 10 10 10 9 8 6 3 2 1 3 6 8 12 12 10 7 8 9 10 12 14 13 12 12 12 12 14 15 14 16 17 18 18 18 17 17 19 20 18 16 18 20 20 19 19 19 18 19 20 20 21 20 20 21 21 21 22 21 21 20
14 14 14 11 9 9 8 8 6 4 3 2 2 2 2 4 7 9 11 10 9 6 7 9 11 12 13 12 12 14 15 16 16 17 17 17 19 20 19 19 19 18 17 17 18 19 18 19 20 18 18 18 19 20 20 20 20 21 21 22 23 23 22
15 14 13 12 10 9 8 7 7 5 4 4 4 3 1 1 2 4 7 9 11 11 9 8 9 10 11 11 12 13 14 15 16 16 17 17 18 19 19 18 17 18 19 18 16 17 18 19 20 19 18 17 16 17 20 21 22 23 22 22 22 23 23
14 15 15 14 13 11 9 8 7 7 6 5 5 4 2 1 1 2 3 5 8 11 12 11 9 9 8 8 9 9 10 11 12 13 14 15 16 16 18 18 18 18 19 18 17 18 18 20 22 23 22 21 18 16 20 23 23 23 22 22 22 22 22
12 14 14 14 14 13 11 9 8 7 7 6 6 6 5 3 1 1 1 2 4 8 12 13 12 10 8 7 7 8 9 10 11 12 13 14 15 16 18 19 19 19 20 22 23 23 21 21 23 25 25 25 22 20 23 25 23 21 20 21 22 23 23
12 13 12 13 14 14 12 11 9 8 8 7 8 8 6 5 4 3 2 1 2 4 6 8 11 13 13 13 13 12 13 14 14 13 13 14 15 16 19 20 20 20 22 24 26 27 27 24 23 24 26 26 25 24 26 25 22 20 20 20 22 23 23
10 12 12 12 13 13 13 12 10 8 8 9 9 9 8 7 6 5 5 4 2 1 3 3 6 8 10 11 12 13 13 14 14 13 14 15 15 16 18 19 18 18 19 21 22 22 24 24 22 23 25 26 26 25 25 25 23 22 21 20 20 21 22
8 10 13 13 12 12 12 12 11 9 9 10 12 11 11 11 9 7 7 6 4 2 0 2 4 6 7 9 10 12 13 13 14 14 14 15 16 16 16 18 18 17 17 18 18 18 20 22 22 23 24 25 25 23 23 25 26 25 24 21 19 19 19
8 9 12 13 10 10 12 12 11 11 10 11 14 14 13 12 10 9 8 6 4 4 2 0 2 4 6 9 11 12 13 12 13 14 13 12 12 12 14 16 16 15 15 16 16 17 19 21 23 25 25 25 25 24 23 25 26 26 26 24 20 18 17
8 9 11 13 10 10 13 12 11 10 10 11 15 16 15 13 10 8 9 8 8 7 5 5 5 5 4 4 4 4 4 5 7 9 11 11 10 9 10 12 12 12 13 14 16 17 19 21 22 25 26 27 27 25 24 25 25 24 23 22 20 19 18
8 9 11 13 12 9 10 9 9 10 12 12 13 14 15 14 13 11 11 11 11 11 11 10 10 10 11 10 9 8 6 4 3 3 5 6 7 7 7 8 9 9 10 12 13 16 18 20 22 24 26 28 28 27 26 26 25 24 22 20 18 18 17
7 9 12 14 12 7 4 4 7 12 17 18 16 14 13 14 14 14 15 14 13 13 13 12 13 13 13 12 11 10 9 8 7 6 5 5 5 5 5 5 5 5 6 8 10 12 15 18 22 23 23 24 23 22 25 27 26 24 23 21 19 18 18
6 9 12 13 10 4 3 4 8 13 16 17 17 14 12 12 14 15 15 15 15 16 15 14 14 14 13 12 12 11 10 9 8 7 6 5 4 3 3 3 4 4 4 5 6 8 10 12 14 11 16 20 17 16 20 24 25 23 22 21 20 20 19
8 9 10 10 8 4 4 7 9 11 12 13 12 10 10 12 14 15 15 15 15 16 15 14 14 13 13 13 13 12 12 11 10 8 7 5 4 3 3 3 2 2 3 4 5 7 7 6 8 6 1 5 6 6 10 15 19 22 21 20 19 18 17
8 9 10 10 9 7 7 7 9 10 11 11 10 9 9 11 13 14 14 14 15 14 13 14 14 13 13 13 12 12 12 11 11 9 8 8 7 5 4 3 2 2 3 4 5 6 7 7 8 9 8 8 7 6 6 5 6 10 12 14 14 12 11
10 10 10 9 9 8 8 8 9 10 9 10 10 9 9 11 13 12 12 12 12 12 12 13 13 13 14 15 15 14 12 12 11 10 9 9 8 7 6 4 4 3 3 3 4 5 6 7 8 8 9 9 9 8 9 9 9 7 4 4 7 8 8
9 10 10 10 10 10 9 9 10 10 9 9 10 10 11 13 13 12 12 12 12 11 12 13 12 13 14 15 16 16 16 15 14 12 11 11 9 9 9 8 6 5 4 3 3 4 4 5 6 6 7 8 8 8 8 8 7 7 7 6 7 8 8
9 9 10 11 11 11 11 11 11 11 11 10 9 10 12 13 13 13 13 12 12 12 13 13 13 13 13 13 14 14 14 14 14 14 13 12 10 10 11 11 11 9 8 7 5 5 5 6 6 7 8 7 7 7 7 7 7 7 7 6 6 6 7
10 10 10 11 11 11 10 10 11 12 12 11 10 10 10 11 12 13 12 11 10 11 12 13 13 13 13 13 13 13 13 13 14 14 13 13 13 12 12 12 12 11 10 10 10 9 10 11 11 12 12 11 11 11 11 11 11 11 10 9 8 7 7
11 11 11 10 9 9 9 9 10 11 11 11 11 10 10 10 10 11 11 10 9 9 10 11 12 12 12 12 12 12 13 15 15 15 15 14 14 14 14 14 13 12 12 12 12 12 12 12 13 13 12 12 12 11 11 12 12 12 11 10 10 9 9
12 11 10 9 8 8 8 8 9 9 10 11 11 10 10 10 10 9 9 9 9 10 11 11 10 10 10 10 11 12 12 12 14 15 15 15 14 14 15 16 15 14 13 13 12 11 11 11 11 11 11 12 11 11 11 12 12 11 11 11 10 10 10
12 11 10 9 9 8 8 8 8 9 10 10 10 10 11 11 10 11 10 10 9 10 11 11 10 9 8 8 9 10 10 9 10 11 13 14 14 14 16 18 18 17 15 13 12 11 10 10 10 11 11 11 12 12 12 12 12 12 12 12 12 12 11
12 11 10 9 9 9 9 8 8 8 9 9 10 10 10 10 10 10 10 10 10 10 12 13 11 9 8 7 9 9 9 8 7 8 8 8 10 12 15 17 19 18 16 15 14 13 13 11 10 10 11 11 11 12 13 13 14 14 14 13 13 13 12
12 11 10 9 9 9 8 8 8 8 8 8 8 9 9 9 10 9 8 8 8 8 9 10 11 9 8 7 8 9 9 7 6 7 7 7 9 12 12 13 16 16 15 15 16 15 15 14 13 11 10 10 11 12 13 14 14 14 13 13 13 13 13
11 11 10 9 9 9 8 8 8 8 8 7 7 8 7 7 8 8 8 7 7 7 6 6 6 6 6 6 6 6 7 6 5 6 7 7 9 11 10 9 11 12 12 13 14 15 16 16 15 14 12 12 12 12 12 13 13 12 12 13 13 12 13

ECMWFFLT1_850_spd_141.txt.gz
Wind_Speed
18 20 21 20 18 17 14 7 7 16 21 22 24 26 27 27 26 24 22 20 19 20 23 23 21 20 21 22 21 22 23 21 20 21 20 17 17 18 20 21 21 21 20 19 18 16 14 13 12 12 12 13 13 12 13 12 11 11 11 11 11 12 11
12 15 17 18 19 18 16 12 6 8 16 21 23 26 29 28 27 25 24 22 19 18 22 22 20 19 20 21 21 20 22 22 21 22 22 19 16 16 16 17 19 20 18 16 16 15 14 14 14 12 11 12 12 12 12 12 11 11 11 11 12 13 14
4 7 9 12 17 20 17 13 7 3 9 18 23 25 27 27 26 25 24 22 19 17 20 21 19 18 19 20 20 20 20 21 21 21 22 21 18 15 14 14 16 17 16 14 12 11 11 13 15 15 13 12 12 12 12 12 12 12 12 12 13 14 14
5 2 2 4 9 17 18 14 8 0 4 12 18 20 23 24 24 26 25 22 20 18 18 19 19 18 18 19 20 20 20 20 19 19 19 20 18 17 16 15 14 14 15 14 14 12 11 11 13 15 16 16 14 12 11 11 12 12 13 13 13 12 13
9 7 3 2 2 8 16 17 13 4 3 4 9 17 22 22 23 26 26 22 19 19 19 18 17 17 18 18 18 19 19 18 18 17 15 15 16 16 16 16 15 14 14 14 16 16 15 14 12 13 15 16 16 15 14 12 11 11 11 13 13 12 12
6 6 4 1 1 5 12 18 18 10 1 4 3 12 21 21 22 25 24 21 19 19 19 18 17 17 17 17 17 17 17 17 18 17 15 13 13 13 14 14 15 15 14 14 16 17 18 17 16 14 13 14 16 17 17 16 14 13 11 12 13 13 13
4 6 5 2 1 4 9 16 21 18 8 4 5 6 16 18 16 19 19 18 19 19 19 18 17 17 17 16 16 15 15 16 16 17 16 14 13 14 14 13 13 15 16 15 16 16 17 18 17 16 14 13 13 14 16 17 17 16 13 11 11 12 12
5 7 6 2 2 1 4 10 17 19 15 8 5 6 11 13 10 14 18 18 18 18 18 18 16 17 16 16 16 15 14 14 13 15 17 17 17 16 16 15 14 15 17 16 16 16 17 17 18 18 17 15 15 13 13 14 15 15 14 12 11 11 11
7 8 5 1 2 1 3 6 10 13 13 11 8 7 10 10 10 15 18 18 19 18 17 17 16 16 16 16 16 16 16 16 16 16 17 20 21 21 21 20 18 18 19 18 17 17 17 18 18 18 18 17 17 15 13 12 12 13 15 14 13 12 12
10 10 6 3 4 4 2 4 7 9 7 9 11 9 10 12 13 14 13 14 16 16 15 16 17 17 15 15 16 17 18 19 19 18 17 17 18 19 21 22 21 20 21 21 20 19 18 19 20 20 19 19 19 18 17 15 13 13 15 16 15 15 14
13 13 10 6 6 7 6 3 2 4 6 9 11 11 10 10 12 13 12 10 10 12 14 16 17 16 15 15 16 17 17 18 19 19 18 16 16 17 19 20 20 20 20 21 22 21 20 20 21 22 22 21 20 19 18 18 17 15 15 16 15 15 16
12 12 12 10 10 12 11 8 6 5 1 3 6 9 9 8 9 11 12 10 8 11 15 16 16 16 16 16 17 17 17 18 19 19 19 19 18 17 17 18 18 17 18 20 21 21 22 20 20 22 23 23 22 21 19 18 18 18 18 17 17 17 17
12 13 12 10 12 14 13 11 9 8 6 4 2 5 8 7 6 9 11 11 9 11 15 15 14 14 16 17 18 19 18 19 20 19 18 19 19 17 16 15 16 16 18 20 21 20 21 21 21 21 22 23 22 20 19 18 17 18 19 20 20 20 20
11 13 13 11 11 12 12 13 11 9 7 6 4 2 6 9 7 5 8 9 7 8 11 12 12 13 16 17 17 18 18 20 22 21 19 18 16 15 15 14 15 16 17 20 22 21 20 20 21 20 20 22 22 21 21 20 19 18 18 18 20 21 21
10 12 13 12 12 11 11 11 10 9 7 5 4 4 2 4 9 10 11 11 9 7 7 8 10 12 15 15 14 15 16 18 20 20 19 17 15 15 16 16 16 16 16 18 22 23 21 19 20 21 21 22 22 22 22 21 21 21 21 21 20 21 22
10 11 11 11 12 11 11 10 8 7 7 5 4 4 5 3 3 6 10 16 17 14 10 8 8 10 13 14 14 14 15 16 17 17 16 15 15 16 17 17 18 18 18 18 19 20 20 19 20 22 21 20 20 21 21 21 21 20 21 22 22 22 23
10 10 10 10 9 9 9 9 7 6 6 6 5 3 4 4 3 3 6 11 15 16 14 11 9 10 12 14 15 14 13 13 13 14 15 15 16 17 17 18 19 20 20 18 17 17 20 21 20 20 18 17 17 17 17 17 18 18 19 20 20 21 22
10 10 10 9 9 8 9 10 9 8 7 7 6 5 4 3 3 4 4 5 8 12 14 14 12 12 12 12 12 12 13 12 10 10 12 14 15 16 18 19 19 19 19 19 18 18 19 19 18 17 15 15 17 18 16 14 15 17 18 18 18 19 21
9 10 10 11 11 9 10 11 10 8 8 7 5 4 4 3 4 5 4 4 6 8 11 13 13 13 14 14 13 12 12 11 9 8 10 11 13 15 16 17 18 18 18 18 18 18 18 18 17 17 17 17 18 19 19 20 20 20 19 20 19 19 20
8 8 10 11 11 10 10 10 8 7 9 8 6 5 5 5 6 6 6 5 6 7 9 11 11 11 11 13 14 15 13 10 8 7 9 9 9 11 13 14 15 16 16 16 16 17 19 20 20 20 20 19 17 16 18 21 23 22 22 22 21 20 19
7 8 10 11 11 11 10 9 9 9 10 11 10 8 8 8 8 8 8 7 6 7 7 7 8 7 6 7 9 10 11 11 10 9 11 10 7 7 9 10 12 13 14 14 15 16 18 18 19 20 19 17 15 16 19 21 22 22 22 22 21 20 19
7 7 9 10 11 12 11 9 10 10 11 12 11 10 9 7 7 8 9 8 7 7 6 5 4 3 1 0 1 2 4 6 7 7 8 8 6 4 5 6 8 9 11 12 14 15 16 16 17 17 16 15 14 17 20 20 20 21 21 21 21 21 20
8 7 8 9 10 11 12 10 9 9 10 11 12 13 11 8 6 8 11 12 12 12 10 9 8 7 6 6 6 4 2 1 1 1 2 2 2 2 3 4 5 6 8 9 11 12 13 14 15 16 16 15 14 16 19 20 21 22 23 23 22 21 21
8 7 8 8 9 11 14 14 13 12 11 10 12 14 14 13 12 13 14 16 16 15 13 13 13 12 11 11 11 9 7 6 4 4 4 4 3 3 2 1 0 2 3 4 6 7 8 9 11 12 14 15 16 17 19 21 22 23 24 25 24 22 22
8 7 8 8 8 10 13 14 15 16 13 11 11 13 13 14 15 16 17 18 17 16 16 17 16 15 14 13 10 9 8 7 6 6 6 6 7 6 6 6 5 4 3 3 3 4 4 5 6 6 6 5 11 16 16 17 20 23 25 26 25 22 21
10 9 9 7 7 11 13 14 15 15 11 9 11 14 15 15 16 18 19 20 19 19 19 19 17 16 15 13 11 9 9 8 7 7 7 7 7 7 7 7 6 6 6 6 6 6 7 8 10 12 14 11 4 3 6 7 9 11 15 20 23 24 23
9 9 9 6 6 9 12 14 16 14 10 8 10 12 14 14 16 17 18 20 21 21 20 20 19 16 15 13 12 11 11 10 10 9 9 8 7 6 7 7 6 5 5 6 6 7 7 9 11 11 11 12 10 7 6 7 9 8 6 4 8 15 18
9 9 8 6 6 8 10 13 16 14 10 9 10 10 11 11 12 14 16 18 20 19 18 18 18 17 16 15 13 13 12 11 11 11 11 10 8 7 6 6 5 4 5 6 7 7 8 10 11 11 10 9 8 6 4 5 6 6 6 6 5 6 6
10 10 9 8 8 7 7 10 12 10 6 5 9 12 13 13 13 13 15 16 17 16 16 15 15 16 16 15 14 13 13 12 11 11 12 12 11 10 10 9 8 7 6 7 8 8 9 10 11 11 10 10 8 7 7 7 7 7 7 6 6 6 7
11 10 10 10 10 6 5 6 8 7 5 6 11 16 17 16 16 16 17 16 16 16 16 16 14 14 15 14 14 15 15 15 14 14 14 13 13 12 13 13 12 11 11 11 10 10 10 11 11 11 11 13 13 12 13 12 12 12 11 10 10 9 9
12 12 12 13 11 9 7 9 10 11 11 10 11 14 15 15 15 16 16 15 15 15 16 15 14 14 14 15 16 17 17 18 18 18 18 17 16 15 16 15 14 15 15 14 14 14 14 14 14 14 15 15 15 15 15 14 14 14 13 12 12 12 12
13 13 13 13 13 12 12 12 13 14 15 13 11 11 13 13 13 13 12 10 11 13 14 14 14 15 15 16 17 18 18 19 19 20 20 19 19 19 19 18 16 16 17 16 16 16 16 16 15 15 15 15 15 15 15 14 13 13 13 12 12 12 12
13 13 13 13 13 12 13 13 13 14 14 12 11 10 11 11 10 10 9 8 10 11 11 12 12 13 15 16 16 16 17 17 18 19 19 20 20 21 21 20 19 17 17 17 16 15 15 14 14 14 15 15 15 16 16 16 15 14 13 13 13 13 13
15 14 14 13 12 10 10 11 12 12 11 11 10 9 10 9 8 7 7 10 12 12 10 10 9 9 11 13 13 14 14 14 15 17 17 18 19 20 21 22 21 20 20 20 19 18 17 17 16 16 16 16 16 16 16 16 17 16 16 16 15 15 14
17 16 15 14 11 9 8 10 11 11 10 10 9 8 9 10 10 9 8 9 11 11 9 8 7 7 9 10 10 10 11 11 12 14 15 16 17 18 19 20 21 21 22 22 22 21 21 20 19 18 17 17 16 16 17 17 17 17 17 17 17 16 15
18 16 14 13 11 10 10 11 12 12 12 12 11 10 10 10 10 9 9 9 10 10 9 7 6 7 9 8 9 9 7 8 10 12 13 14 16 16 16 18 19 19 20 21 21 21 21 22 21 19 19 19 17 17 17 17 17 16 17 17 17 16 15
16 15 14 13 13 13 12 12 12 12 12 12 11 10 10 9 9 9 8 8 9 8 7 5 5 7 7 6 5 6 5 6 7 9 10 11 13 13 13 14 15 16 17 18 18 18 19 21 22 21 20 20 20 19 17 16 16 15 15 15 16 16 16
15 14 13 13 13 13 13 13 13 12 11 11 10 9 8 8 7 7 7 7 6 5 5 4 6 8 8 6 4 3 3 4 4 4 6 6 7 8 9 10 11 13 14 14 15 15 16 17 18 20 21 21 20 19 17 15 14 14 14 14 15 15 15